Regional Weather Roundup
Issued by NWS Upton, NY

Current Version | Previous Version | Text Only | Print | Product List | Glossary On
Versions: 1 2 3 4 5 6 7 8 9 10 11 12 13 14 15 16 17 18 19 20 21 22 23 24 25 26 27 28 29 30 31 32 33 34 35 36 37 38 39 40 41 42 43 44 45 46 47 48 49 50
000 ASUS41 KOKX 311505 RWROKX REGIONAL WEATHER ROUNDUP NATIONAL WEATHER SERVICE NEW YORK NY 1000 AM EST SAT JAN 31 2015 NOTE: "FAIR" INDICATES FEW OR NO CLOUDS BELOW 12,000 FEET WITH NO SIGNIFICANT WEATHER AND/OR OBSTRUCTIONS TO VISIBILITY. NYZ071-072-176-178-NJZ106-104-311600- NEW YORK CITY METRO AREA CITY SKY/WX TMP DP RH WIND PRES REMARKS CENTRAL PARK SUNNY 15 -4 42 NW13G29 30.14R WCI 1 LAGUARDIA APRT SUNNY 16 1 51 NW20G29 30.14R WCI -1 KENNEDY INTL MOSUNNY 17 -3 41 NW26G39 30.13R WCI -2 NEWARK/LIBERTY SUNNY 16 -2 45 NW21G37 30.16R WCI -1 BRNX BOT. GARD N/A N/A N/A N/A W12 30.13R TETERBORO SUNNY 15 -4 42 NW17G30 30.15S WCI -1 $$ NYZ177-179-078>081-311600- LONG ISLAND NEW YORK CITY SKY/WX TMP DP RH WIND PRES REMARKS FARMINGDALE SUNNY 16 -5 39 N18G28 30.09R WCI 0 ISLIP SUNNY 16 -3 43 NW22G37 30.03R WCI -2 SHIRLEY SUNNY 17 -6 35 NW25G44 30.04R WCI -1 WESTHAMPTON SUNNY 16 -5 39 NW25G46 30.00R WCI -3 MONTAUK POINT N/A 16 1 51 NW25G36 29.95R WCI -3 $$ NYZ052-065-067-311600- HUDSON VALLEY CITY SKY/WX TMP DP RH WIND PRES REMARKS WHITE PLAINS SUNNY 14 -5 42 NW16 30.06R WCI -2 NEWBURGH SUNNY 12 -4 48 NW12G17 30.12R WCI -2 MONTGOMERY SUNNY 13 -5 44 NW28G37 30.11R WCI -8 POUGHKEEPSIE SUNNY 12 -10 36 N12 30.14R WCI -2 ALBANY SUNNY 4 -12 48 NW16 30.20R WCI -15 $$ NJZ001-105-106-008-010-013-015-019>022-104-311600- NEW JERSEY CITY SKY/WX TMP DP RH WIND PRES REMARKS NEWARK/LIBERTY SUNNY 16 -2 45 NW21G37 30.16R WCI -1 TETERBORO SUNNY 15 -4 42 NW17G30 30.15S WCI -1 CALDWELL SUNNY 15 -5 40 N10G25 30.16R WCI 2 MORRISTOWN SUNNY 16 -2 45 N14G24 30.17S WCI 1 SOMERVILLE SUNNY 17 -2 43 NW23G33 30.17R WCI -1 SUSSEX SUNNY 13 -5 44 NW22G35 30.15R WCI -6 ANDOVER N/A 14 -3 47 N9 30.17R WCI 2 TRENTON SUNNY 16 -2 45 NW14G23 30.21R WCI 2 MILLVILLE SUNNY 20 -2 38 NW15G28 30.25R WCI 6 ATLANTIC CITY SUNNY 20 0 41 NW22G33 30.20R WCI 3 WRIGHTSTOWN SUNNY 18 -1 43 NW23G33 30.19R WCI 0 TOMS RIVER SUNNY 18 0 45 NW18G33 30.17R WCI 2 BELMAR SUNNY 18 -2 41 W15G28 30.14R WCI 3 $$ PAZ047>061-062-071-311600- EASTERN PENNSYLVANIA CITY SKY/WX TMP DP RH WIND PRES REMARKS PHILADELPHIA SUNNY 19 -3 38 NW18G29 30.28R WCI 4 ALLENTOWN SUNNY 14 -2 49 NW13G21 30.23R WCI 0 SCRANTON MOSUNNY 10 -1 61 NW14G26 30.23R WCI -6 $$ CTZ002-004>006-009-010-012-RIZ004-006-007-MAZ004-011-015-311600- SOUTHERN NEW ENGLAND IN CT CITY SKY/WX TMP DP RH WIND PRES REMARKS BRADLEY INTL MOSUNNY 10 -11 38 N15 30.01S WCI -7 HARTFORD SUNNY 10 -10 40 NW17G28 30.04R WCI -8 DANBURY SUNNY 12 -12 33 NW21G32 30.07R WCI -7 WTRBRY/OXFORD NOT AVBL BRIDGEPORT SUNNY 15 -7 37 NW29G45 30.03S WCI -5 MERIDEN SUNNY 11 -11 36 N25G40 30.03R WCI -10 NEW HAVEN SUNNY 14 -9 35 N15G28 30.02R WCI -1 CHESTER FAIR 10 -9 40 NW20G33 29.95R WCI -8 GROTON SUNNY 11 -6 46 N29G40 29.95R WCI -11 WILLIMANTIC SUNNY 11 -8 42 NW16G30 29.96R WCI -6 IN RI CITY SKY/WX TMP DP RH WIND PRES REMARKS PROVIDENCE MOSUNNY 15 -7 37 NW23G35 29.87R WCI -3 BLOCK ISLAND SUNNY 16 -2 45 NW17G32 29.87R WCI 0 WESTERLY SUNNY 14 -6 40 NW24G38 29.90R WCI -5 IN MA CITY SKY/WX TMP DP RH WIND PRES REMARKS BOSTON CLOUDY 14 -3 47 NW26G38 29.84R WCI -6 WORCESTER SUNNY N/A N/A N/A NW32G41 29.82R WESTFIELD SUNNY 10 -8 44 NW21G29 30.00R WCI -9 PROVINCETOWN PTSUNNY 19 12 73 NW32G40 29.75R WCI 0 NANTUCKET CLOUDY 20 11 68 NW25G37 29.73R WCI 2 $$ ANZ330-335-338-340-345-350-353-355-311600- COASTAL MARINE OBSERVATIONS STATION/POSITION TIME SKY/WX TEMP WIND PRES VSBY WAVE AIR SEA DIR/SP/G HT/PER (UTC) (F) (DEG/KT/KT) (MB) (MI) (FT/S) NY HARB ENTRANCE 1500 20 40 310/ 31/ 39 1018.8 7/ 6 4S FIRE IS 1500 37 N/A 5/ 5 20S FIRE ISLAND 1400 41 1017.6 9/ 7 23SW MTP 1500 N/A 9/ 6 HUDSON CANYON NOT AVBL EXECUTION ROCKS 1500 17 33 310/ 21/ 29 N/A WESTERN LI SOUND 1500 16 310/ 19/ 27 N/A 2/ 3 CENTRAL LI SOUND 1400 15 34 320/ 23/ 31 N/A 4/ 5 EASTERN LI SOUND NOT AVBL ROBBINS REEF 1500 15 320/ 24/ 34 1019.3 $$ >>>>>>>>>>>>>>>>>>>>>>>>>>>> KEY <<<<<<<<<<<<<<<<<<<<<<<<<<< > < > SKY/WX - SKY CONDITION/PRESENT WEATHER < > TMP - TEMPERATURE IN FAHRENHEIT < > DP - DEWPOINT IN FAHRENHEIT < > RH - RELATIVE HUMIDITY IN PERCENT < > WIND - DIRECTION AND SPEED IN MPH < > PRES - MEAN SEA LEVEL PRESSURE IN INCHES OF HG < > WCI - WIND CHILL INDEX < > VSB - VISIBILITY IN MILES < > HX - HEAT INDEX < > TC - TEMPERATURE IN CELSIUS < > VRB - VARIABLE WIND DIRECTION < > < >>>>>>>>>>>>>>>>>>>>>>>>>>>> KEY <<<<<<<<<<<<<<<<<<<<<<<<<<<

USA.gov is the U.S. government's official web portal to all federal, state and local government web resources and services.